[[{"header":{"parameterUnit":"m.s-1","parameterCategory":2,"la1":30.2991,"la2":30.254,"lo1":-89.0895,"lo2":-89.0444,"dy":0.0017,"dx":0.0017,"nx":28,"ny":28,"refTime":"2024-03-17T03:00:00:Z","depth":"0","parameterNumber":2,"parameterNumberName":"U-component_of_CURRENTS"},"data":[0,0,0,0,0,0,0,0,0,0,0,0,0,0,0,0,0,0,0,0,0,0,0,0,0,0,0,0,0,0,0,0,0,0,0,0,0,0,0,0,0,0,0,0,0,0,0,0,0,0,0,0,0,0,0,0,0,0,0.2595,0.2595,0,0.252,0.2519,0.2518,0.2483,0.2484,0.2484,0.2484,0.2458,0.2457,0.2456,0,0,0,0,0,0,0,0,0,0,0,0,0,0.2651,0.265,0.2595,0.2595,0.2594,0.2521,0.2519,0.2518,0.2483,0.2484,0.2484,0.2484,0.2458,0.2457,0.2456,0,0,0,0,0,0,0,0,0,0,0,0,0,0.2604,0.265,0.2595,0.257,0.2567,0.2521,0.2519,0.2518,0.2483,0.2484,0.2484,0.2485,0.2459,0.2457,0.2456,0.2436,0,0,0.2451,0.245,0,0,0,0,0,0,0,0,0.2606,0.2601,0.2574,0.2572,0.2569,0.2515,0.2529,0.2494,0.2483,0.2512,0.2484,0.2485,0.2483,0.248,0.2459,0.2435,0.2434,0.2451,0.245,0.2449,0.2449,0,0,0,0,0,0,0,0.261,0.2604,0.2562,0.2574,0.257,0.2543,0.2537,0.2522,0.2494,0.2509,0.2507,0.2504,0.2481,0.2461,0.2459,0.2433,0.2451,0.245,0.2449,0.2448,0.2429,0.2429,0,0,0,0,0,0,0.2627,0.2607,0.2565,0.256,0.2593,0.2542,0.2535,0.2529,0.2493,0.2488,0.2504,0.2503,0.2463,0.246,0.2458,0.2475,0.2449,0.2448,0.2447,0.2428,0.2429,0.2429,0,0,0,0,0,0,0.2629,0.2624,0.2568,0.2585,0.2576,0.2542,0.2534,0.2527,0.2515,0.2489,0.2485,0.25,0.2463,0.246,0.245,0.2473,0.2447,0.2446,0.2428,0.2428,0.2429,0.2484,0,0,0,0,0,0,0.2631,0.2625,0.2624,0.2586,0.2576,0.2544,0.2533,0.2525,0.2513,0.2511,0.2484,0.2481,0.2463,0.2453,0.2449,0.247,0.2445,0.2427,0.2428,0.2429,0.2481,0.2486,0.249,0,0,0,0,0,0.2633,0.2627,0.2625,0.262,0.2577,0.2544,0.2536,0.2511,0.2513,0.2502,0.249,0.2483,0.2455,0.2451,0.2447,0.2468,0.2427,0.2428,0.2429,0.2479,0.2485,0.249,0,0,0,0,0,0,0.264,0.2623,0.2619,0.2606,0.2582,0.254,0.2529,0.2517,0.2496,0.25,0.248,0.2476,0.2482,0.2461,0.2458,0.2464,0.2443,0.2443,0.2483,0.2488,0.2492,0.2514,0.2443,0,0,0,0,0,0.2646,0.2641,0.2617,0.2604,0.2598,0.2567,0.2552,0.2536,0.2514,0.2505,0.2489,0.2478,0.2478,0.2473,0.2462,0.2457,0.2473,0.247,0.2474,0.2478,0.2492,0.2547,0.2558,0.2432,0.2432,0.2432,0,0,0.264,0.2634,0.2627,0.2606,0.2587,0.2574,0.2558,0.2538,0.2534,0.2507,0.25,0.2494,0.2481,0.2482,0.2483,0.2469,0.2519,0.2479,0.2483,0.2495,0.2549,0.2562,0.2573,0.2433,0.2433,0.2432,0,0,0.2626,0.2628,0.2619,0.2608,0.259,0.2578,0.2579,0.2547,0.2543,0.253,0.2526,0.2536,0.2509,0.2517,0.2517,0.2539,0.2545,0.2531,0.2567,0.2619,0.2631,0.2641,0.2668,0.268,0.2528,0.2528,0.2528,0,0.2622,0.261,0.2608,0.26,0.2596,0.2587,0.2577,0.257,0.254,0.2554,0.2536,0.2545,0.2533,0.2566,0.2571,0.2553,0.2573,0.255,0.2628,0.2639,0.2649,0.2673,0.2686,0.2531,0.2531,0.253,0.253,0,0.2598,0.2595,0.259,0.2587,0.2584,0.2572,0.2575,0.258,0.2583,0.2584,0.2613,0.2599,0.2612,0.261,0.2594,0.2657,0.2645,0.2635,0.2622,0.2666,0.2687,0.27,0.2535,0.2534,0.2533,0.2532,0,0,0.2569,0.2573,0.2571,0.2574,0.258,0.2572,0.2595,0.2612,0.2643,0.2635,0.2676,0.2682,0.2693,0.2694,0.2687,0.2723,0.2801,0.2708,0.2709,0.2745,0.2906,0.2854,0.2863,0.281,0.2813,0.2815,0.2891,0,0.2549,0.2537,0.2551,0.2548,0.2544,0.2571,0.2596,0.2622,0.2648,0.2687,0.2715,0.2742,0.2721,0.2732,0.2773,0.28,0.2839,0.2781,0.2849,0.285,0.2809,0.2878,0.2777,0.2833,0.2903,0.2905,0.2906,0,0.2515,0.2519,0.2511,0.2543,0.2547,0.2556,0.2616,0.2635,0.2709,0.2735,0.2787,0.2806,0.2869,0.2837,0.2928,0.2893,0.2909,0.2922,0.2925,0.287,0.2823,0.2801,0.2853,0.2827,0.2926,0.2924,0.2923,0,0.2481,0.2491,0.2491,0.2495,0.253,0.2554,0.2583,0.2651,0.2692,0.2773,0.2821,0.2887,0.2934,0.2977,0.3006,0.2978,0.31,0.3063,0.303,0.3025,0.295,0.2934,0.2996,0.3135,0.3135,0.3135,0.3135,0,0.2444,0.2439,0.2477,0.2471,0.2496,0.2537,0.258,0.2627,0.2718,0.2777,0.2846,0.2906,0.2977,0.3046,0.3051,0.309,0.3144,0.306,0.3056,0.2962,0.2947,0.2926,0.2911,0.3138,0.3137,0.3137,0.3136,0,0.2382,0.2403,0.2405,0.2453,0.247,0.2487,0.2565,0.2606,0.2704,0.2789,0.2822,0.2954,0.3044,0.31,0.3177,0.3152,0.3105,0.3174,0.3045,0.3024,0.2938,0.2928,0.285,0.2753,0.315,0.315,0.3149,0,0.2338,0.2337,0.2379,0.239,0.2407,0.2445,0.2478,0.2576,0.263,0.2804,0.2846,0.2983,0.3056,0.3164,0.3156,0.3176,0.3094,0.3073,0.2998,0.2944,0.2932,0.2803,0.2716,0.2916,0.2914,0.2912,0.291,0,0.227,0.2293,0.2303,0.2329,0.2357,0.2384,0.2445,0.2489,0.2617,0.2706,0.2833,0.2916,0.3047,0.304,0.3082,0.3069,0.294,0.3031,0.3025,0.2804,0.262,0.2519,0.2842,0.2893,0.2894,0.2896,0.2897,0.2897,0.2223,0.2219,0.2249,0.2263,0.2292,0.2316,0.2314,0.2398,0.2472,0.2584,0.2725,0.2818,0.2911,0.2964,0.2937,0.287,0.2826,0.2787,0.2794,0.268,0.2537,0.2809,0.2821,0.2822,0.2823,0.2824,0.2825,0,0.2155,0.2166,0.2183,0.2191,0.2186,0.2232,0.2281,0.2272,0.231,0.2453,0.2539,0.2666,0.2684,0.2749,0.2759,0.2674,0.2511,0.2603,0.2426,0.2362,0.2669,0.2612,0.2519,0.2519,0.2519,0.2519,0.2519,0.2519,0.2121,0.2105,0.2114,0.2078,0.2086,0.2052,0.2057,0.2067,0.2138,0.2218,0.2305,0.2416,0.264,0.2719,0.2681,0.2591,0.2406,0.2275,0.2263,0.254,0.2557,0.2574,0.2519,0.2407,0.2407,0.1833,0.1829,0.1827]},{"header":{"parameterUnit":"m.s-1","parameterCategory":2,"la1":30.2991,"la2":30.254,"lo1":-89.0895,"lo2":-89.0444,"dy":0.0017,"dx":0.0017,"nx":28,"ny":28,"refTime":"2024-03-17T03:00:00:Z","depth":"0","parameterNumber":3,"parameterNumberName":"V-component_of_CURRENTS"},"data":[0,0,0,0,0,0,0,0,0,0,0,0,0,0,0,0,0,0,0,0,0,0,0,0,0,0,0,0,0,0,0,0,0,0,0,0,0,0,0,0,0,0,0,0,0,0,0,0,0,0,0,0,0,0,0,0,0,0,-0.0196,-0.0196,0,-0.0185,-0.0185,-0.0185,-0.0198,-0.0199,-0.0199,-0.02,-0.0249,-0.025,-0.0251,0,0,0,0,0,0,0,0,0,0,0,0,0,-0.0229,-0.0228,-0.0196,-0.0196,-0.0196,-0.0185,-0.0185,-0.0185,-0.0198,-0.0199,-0.0199,-0.02,-0.0249,-0.025,-0.0251,0,0,0,0,0,0,0,0,0,0,0,0,0,-0.0216,-0.0228,-0.0196,-0.0201,-0.0201,-0.0185,-0.0185,-0.0185,-0.0198,-0.0199,-0.0199,-0.02,-0.0249,-0.025,-0.0252,-0.0247,0,0,-0.0256,-0.0256,0,0,0,0,0,0,0,0,-0.0217,-0.0215,-0.02,-0.02,-0.0201,-0.0193,-0.0215,-0.0209,-0.0198,-0.02,-0.02,-0.02,-0.0235,-0.0238,-0.0235,-0.025,-0.0252,-0.0256,-0.0257,-0.0257,-0.0258,0,0,0,0,0,0,0,-0.0218,-0.0216,-0.0193,-0.02,-0.02,-0.0203,-0.0202,-0.0214,-0.0216,-0.02,-0.0201,-0.0198,-0.0236,-0.0233,-0.0236,-0.0253,-0.0256,-0.0257,-0.0258,-0.0259,-0.0276,-0.0276,0,0,0,0,0,0,-0.0217,-0.0216,-0.0193,-0.0192,-0.021,-0.0202,-0.0201,-0.0196,-0.0215,-0.0217,-0.0198,-0.0199,-0.023,-0.0234,-0.0238,-0.0237,-0.0257,-0.0259,-0.0259,-0.0276,-0.0276,-0.0276,0,0,0,0,0,0,-0.0218,-0.0215,-0.0194,-0.0204,-0.0201,-0.0201,-0.0195,-0.0195,-0.019,-0.0212,-0.0216,-0.0192,-0.0231,-0.0236,-0.0243,-0.0239,-0.0259,-0.0261,-0.0277,-0.0276,-0.0276,-0.0234,0,0,0,0,0,0,-0.0219,-0.0215,-0.0211,-0.0204,-0.0201,-0.0177,-0.0194,-0.0194,-0.0188,-0.0189,-0.0209,-0.0214,-0.0232,-0.0241,-0.0244,-0.0242,-0.0262,-0.0277,-0.0277,-0.0276,-0.0236,-0.0232,-0.0229,0,0,0,0,0,-0.022,-0.0207,-0.021,-0.0208,-0.0194,-0.0176,-0.0174,-0.0177,-0.0187,-0.0177,-0.0193,-0.0213,-0.0239,-0.0241,-0.0246,-0.0243,-0.0278,-0.0277,-0.0276,-0.0238,-0.0233,-0.0229,0,0,0,0,0,0,-0.0213,-0.0207,-0.0211,-0.0196,-0.0184,-0.0178,-0.0168,-0.0172,-0.0175,-0.0179,-0.0205,-0.0211,-0.0219,-0.0233,-0.0235,-0.0246,-0.0263,-0.0263,-0.0233,-0.0229,-0.0225,-0.0209,-0.0263,0,0,0,0,0,-0.021,-0.0203,-0.0194,-0.0181,-0.0174,-0.0171,-0.0164,-0.0164,-0.0165,-0.0167,-0.0183,-0.0201,-0.0217,-0.0224,-0.0239,-0.0241,-0.0255,-0.0243,-0.024,-0.0237,-0.0226,-0.0247,-0.0244,-0.0273,-0.0273,-0.0273,0,0,-0.0202,-0.0199,-0.0193,-0.0179,-0.0171,-0.0152,-0.0168,-0.015,-0.0139,-0.0173,-0.0167,-0.019,-0.0215,-0.022,-0.0225,-0.0232,-0.0236,-0.0236,-0.0233,-0.0224,-0.0246,-0.0243,-0.0241,-0.0272,-0.0272,-0.0272,0,0,-0.0173,-0.0178,-0.0157,-0.0149,-0.0134,-0.0134,-0.0127,-0.0119,-0.012,-0.0116,-0.0142,-0.0158,-0.0177,-0.0193,-0.0206,-0.0191,-0.0218,-0.02,-0.0167,-0.0187,-0.0185,-0.0183,-0.0195,-0.0194,-0.0196,-0.0196,-0.0196,0,-0.0163,-0.0137,-0.0146,-0.0123,-0.0112,-0.0124,-0.0094,-0.0096,-0.0093,-0.0091,-0.011,-0.0138,-0.0164,-0.0171,-0.0168,-0.0183,-0.0195,-0.0181,-0.0182,-0.0181,-0.018,-0.0192,-0.0192,-0.0194,-0.0195,-0.0195,-0.0195,0,-0.0113,-0.0097,-0.0082,-0.0063,-0.0054,-0.003,-0.0033,-0.0028,-0.004,-0.0044,-0.0053,-0.0089,-0.0104,-0.0121,-0.0141,-0.0145,-0.0156,-0.0177,-0.0192,-0.0174,-0.0189,-0.0189,-0.0191,-0.0192,-0.0193,-0.0193,0,0,-0.0075,-0.0052,-0.0046,-0.0027,-0.002,-0.0002,0.0009,0.0023,0.0039,0.0014,0.0028,-0.0014,-0.0036,-0.0051,-0.0084,-0.0104,-0.0113,-0.0132,-0.0134,-0.014,-0.0149,-0.0159,-0.0161,-0.0136,-0.0136,-0.0136,-0.0161,0,-0.0029,0.0022,0.0018,0.0064,0.0092,0.0076,0.0091,0.0095,0.0087,0.0094,0.0047,0.0041,-0.0009,-0.0016,-0.0045,-0.009,-0.0113,-0.0103,-0.0167,-0.0169,-0.0178,-0.0162,-0.0145,-0.0166,-0.0162,-0.0162,-0.0162,0,0.003,0.0052,0.0107,0.0132,0.0143,0.0164,0.0188,0.02,0.0193,0.0185,0.0163,0.0125,0.0093,0.0043,-0.0027,-0.0018,-0.0077,-0.0121,-0.0124,-0.0146,-0.018,-0.0184,-0.0168,-0.0312,-0.0164,-0.0164,-0.0163,0,0.0077,0.0117,0.0161,0.0171,0.0195,0.0216,0.0228,0.0234,0.0258,0.0245,0.0262,0.0202,0.0189,0.0104,0.0009,-0.0008,-0.0068,-0.0106,-0.0173,-0.0174,-0.0177,-0.0179,-0.0304,-0.0161,-0.0161,-0.0161,-0.0161,0,0.0132,0.0168,0.0189,0.0216,0.0271,0.0266,0.0323,0.0325,0.0341,0.0391,0.0316,0.0342,0.0204,0.015,0.0044,-0.0055,-0.0044,-0.0158,-0.0179,-0.0162,-0.0162,-0.0302,-0.0394,-0.0162,-0.0161,-0.0161,-0.0161,0,0.0184,0.0198,0.0249,0.0282,0.03,0.0339,0.0391,0.0432,0.0436,0.0499,0.0499,0.0452,0.0386,0.0246,0.0118,0.0007,-0.0186,-0.0144,-0.011,-0.0128,-0.0332,-0.0421,-0.0561,-0.065,-0.022,-0.022,-0.0221,0,0.0217,0.0251,0.0302,0.0341,0.0362,0.0417,0.0464,0.0481,0.0536,0.0584,0.0627,0.0572,0.0565,0.0366,0.0153,-0.0035,-0.0189,-0.0157,-0.0196,-0.0334,-0.045,-0.0513,-0.0583,-0.0184,-0.0184,-0.0184,-0.0184,0,0.0275,0.0292,0.0333,0.0413,0.047,0.0536,0.0608,0.0665,0.0707,0.0766,0.0841,0.0836,0.0647,0.0456,0.0175,0.0042,-0.0271,-0.0163,-0.0317,-0.0438,-0.0504,-0.0601,-0.0176,-0.0184,-0.0184,-0.0184,-0.0184,-0.0184,0.0319,0.0356,0.0414,0.0492,0.056,0.0655,0.0725,0.0813,0.0916,0.1018,0.1004,0.1031,0.0722,0.0346,0.0136,-0.0258,-0.0286,-0.038,-0.0477,-0.0526,-0.062,-0.019,-0.022,-0.022,-0.022,-0.022,-0.0221,0,0.0373,0.0418,0.0491,0.0584,0.0666,0.0694,0.0823,0.0902,0.1043,0.1134,0.1196,0.106,0.0702,0.032,-0.0216,-0.0513,-0.0634,-0.0682,-0.0777,-0.0836,-0.0453,-0.0459,-0.0528,-0.0528,-0.0528,-0.0528,-0.0528,-0.0528,0.0407,0.0484,0.0519,0.0662,0.0729,0.0849,0.0928,0.105,0.1146,0.1252,0.1269,0.1241,0.0932,-0.0006,-0.0674,-0.0833,-0.1072,-0.1107,-0.1256,-0.1001,-0.098,-0.096,-0.0987,-0.1166,-0.1167,-0.1588,-0.1592,-0.1595]}],[{"header":{"parameterUnit":"m.s-1","parameterCategory":2,"la1":30.2991,"la2":30.254,"lo1":-89.0895,"lo2":-89.0444,"dy":0.0017,"dx":0.0017,"nx":28,"ny":28,"refTime":"2024-03-17T03:00:00:Z","depth":"2","parameterNumber":2,"parameterNumberName":"U-component_of_CURRENTS"},"data":[0,0,0,0,0,0,0,0,0,0,0,0,0,0,0,0,0,0,0,0,0,0,0,0,0,0,0,0,0,0,0,0,0,0,0,0,0,0,0,0,0,0,0,0,0,0,0,0,0,0,0,0,0,0,0,0,0,0,0.2419,0.2419,0,0.2384,0.2383,0.2383,0.2369,0.237,0.237,0.237,0.2355,0.2354,0.2354,0,0,0,0,0,0,0,0,0,0,0,0,0,0.2434,0.2434,0.2419,0.2419,0.2418,0.2384,0.2383,0.2383,0.2369,0.237,0.237,0.2371,0.2355,0.2354,0.2354,0,0,0,0,0,0,0,0,0,0,0,0,0,0.2413,0.2434,0.2419,0.241,0.2409,0.2384,0.2383,0.2382,0.2369,0.237,0.237,0.2371,0.2356,0.2355,0.2353,0.2334,0,0,0.235,0.2349,0,0,0,0,0,0,0,0,0.2415,0.2412,0.2412,0.2411,0.241,0.2385,0.2383,0.2368,0.2369,0.2381,0.237,0.2371,0.2368,0.2366,0.2353,0.2334,0.2333,0.235,0.2349,0.2349,0.2348,0,0,0,0,0,0,0,0.2416,0.2414,0.2402,0.2411,0.241,0.2395,0.2393,0.238,0.237,0.238,0.238,0.2381,0.2368,0.2355,0.2353,0.2333,0.235,0.2349,0.2348,0.2348,0.234,0.234,0,0,0,0,0,0,0.2428,0.2415,0.2403,0.2401,0.2417,0.2395,0.2392,0.2389,0.2369,0.2368,0.238,0.238,0.2356,0.2354,0.2353,0.2376,0.2349,0.2347,0.2347,0.2339,0.234,0.2341,0,0,0,0,0,0,0.2429,0.2427,0.2404,0.241,0.2407,0.2394,0.2391,0.2388,0.2389,0.237,0.2368,0.2386,0.2357,0.2354,0.2352,0.2374,0.2347,0.2346,0.2339,0.234,0.234,0.2394,0,0,0,0,0,0,0.2429,0.2428,0.2437,0.2411,0.2407,0.2398,0.2391,0.2387,0.2389,0.2389,0.2374,0.2372,0.2357,0.2354,0.2351,0.2372,0.2345,0.2338,0.2339,0.234,0.2391,0.2396,0.24,0,0,0,0,0,0.243,0.2433,0.2437,0.2436,0.2417,0.2399,0.2395,0.2386,0.2389,0.2388,0.238,0.2373,0.2358,0.2353,0.2349,0.2371,0.2338,0.2339,0.234,0.2389,0.2395,0.24,0,0,0,0,0,0,0.2431,0.2432,0.2435,0.2436,0.2426,0.2398,0.24,0.2394,0.2385,0.2389,0.2373,0.2371,0.2382,0.2363,0.2359,0.2371,0.2349,0.2349,0.2388,0.2393,0.2398,0.2418,0.2344,0,0,0,0,0,0.2441,0.2452,0.2439,0.2441,0.244,0.2424,0.2419,0.2411,0.2398,0.2395,0.2385,0.2378,0.238,0.2377,0.237,0.2369,0.2383,0.2382,0.2387,0.2391,0.2405,0.2455,0.2466,0.2344,0.2344,0.2344,0,0,0.2441,0.2444,0.2449,0.2444,0.2437,0.2432,0.2422,0.2416,0.2418,0.2395,0.2397,0.2395,0.2384,0.239,0.2393,0.2379,0.2429,0.2392,0.2396,0.2408,0.2458,0.247,0.2481,0.2345,0.2345,0.2345,0,0,0.2438,0.2451,0.2457,0.2454,0.2452,0.2445,0.2449,0.243,0.2432,0.2429,0.2425,0.2439,0.242,0.2427,0.2427,0.2452,0.2456,0.2446,0.2482,0.2531,0.2542,0.2552,0.2574,0.2586,0.2444,0.2444,0.2444,0,0.2444,0.2442,0.2452,0.2452,0.2456,0.2455,0.2453,0.2453,0.2436,0.245,0.2438,0.2453,0.2444,0.2474,0.2482,0.2466,0.2484,0.2464,0.254,0.255,0.2559,0.258,0.2592,0.2446,0.2446,0.2446,0.2446,0,0.2433,0.2441,0.2442,0.2453,0.2458,0.2454,0.2461,0.2472,0.2479,0.2483,0.2517,0.2508,0.2523,0.2521,0.2507,0.2568,0.2556,0.2546,0.2531,0.2575,0.2593,0.2605,0.245,0.2449,0.2449,0.2448,0,0,0.2423,0.2435,0.2437,0.2444,0.2459,0.2457,0.2483,0.2505,0.2535,0.2537,0.2578,0.2588,0.2601,0.2603,0.2597,0.2631,0.2705,0.2618,0.2619,0.2649,0.2803,0.2752,0.276,0.2715,0.2717,0.2719,0.2785,0,0.2413,0.2412,0.2426,0.2435,0.2437,0.2465,0.2491,0.252,0.2548,0.2587,0.2615,0.2645,0.2627,0.2642,0.2681,0.2705,0.2741,0.2687,0.2747,0.2749,0.2708,0.2774,0.2517,0.2551,0.2796,0.2798,0.28,0,0.2391,0.2399,0.2401,0.2436,0.2442,0.2456,0.2516,0.2537,0.2608,0.2635,0.2688,0.2707,0.2768,0.274,0.2826,0.2795,0.2808,0.2819,0.2822,0.2768,0.2721,0.2548,0.2563,0.2819,0.2818,0.2816,0.2815,0,0.2362,0.2382,0.2387,0.2394,0.2433,0.2458,0.2488,0.2554,0.2594,0.2674,0.2722,0.2785,0.2833,0.2872,0.2899,0.2874,0.2986,0.295,0.2916,0.2911,0.2701,0.2674,0.3017,0.3017,0.3017,0.3016,0.3016,0,0.2334,0.2337,0.2377,0.2376,0.2403,0.2445,0.249,0.2537,0.2624,0.268,0.2748,0.2805,0.2875,0.2938,0.2941,0.2975,0.3026,0.2944,0.2939,0.2709,0.2683,0.2919,0.2906,0.3019,0.3018,0.3018,0.3017,0,0.2283,0.2306,0.2315,0.2365,0.2383,0.2402,0.2479,0.2519,0.2615,0.2696,0.2729,0.2853,0.2936,0.2988,0.3058,0.3033,0.3057,0.3049,0.2765,0.2726,0.2933,0.2923,0.3022,0.3021,0.302,0.302,0.3019,0,0.2246,0.2249,0.2294,0.2307,0.2326,0.2367,0.2399,0.2494,0.2544,0.2709,0.2747,0.2877,0.294,0.3037,0.3005,0.3014,0.3066,0.2779,0.2688,0.2957,0.2941,0.2932,0.2923,0.2418,0.2413,0.2409,0.2405,0,0.2188,0.2213,0.2225,0.2253,0.2282,0.2309,0.2368,0.2407,0.253,0.2611,0.2723,0.2795,0.2897,0.2795,0.2825,0.2789,0.2757,0.2692,0.3061,0.2466,0.2396,0.2378,0.2387,0.2365,0.2369,0.2372,0.2374,0.2376,0.2148,0.2146,0.2176,0.2192,0.2222,0.2241,0.2239,0.231,0.2373,0.2449,0.2588,0.2599,0.2622,0.254,0.2466,0.24,0.2591,0.2446,0.2456,0.2472,0.24,0.2333,0.2276,0.2279,0.2282,0.2285,0.2287,0,0.2082,0.2097,0.2115,0.2124,0.2114,0.2165,0.2206,0.2173,0.2189,0.2267,0.2322,0.2141,0.2087,0.2114,0.1953,0.1963,0.1912,0.1878,0.1768,0.181,0.1847,0.1738,0.1441,0.1439,0.1436,0.1434,0,0,0.2051,0.2034,0.2042,0.2005,0.2018,0.1971,0.1972,0.1934,0.1943,0.1893,0.1863,0.1991,0.206,0.1719,0.1676,0.1528,0.1658,0.1471,0.2151,0.2064,0.2097,0.218,0.2062,0,0,0,0,0]},{"header":{"parameterUnit":"m.s-1","parameterCategory":2,"la1":30.2991,"la2":30.254,"lo1":-89.0895,"lo2":-89.0444,"dy":0.0017,"dx":0.0017,"nx":28,"ny":28,"refTime":"2024-03-17T03:00:00:Z","depth":"2","parameterNumber":3,"parameterNumberName":"V-component_of_CURRENTS"},"data":[0,0,0,0,0,0,0,0,0,0,0,0,0,0,0,0,0,0,0,0,0,0,0,0,0,0,0,0,0,0,0,0,0,0,0,0,0,0,0,0,0,0,0,0,0,0,0,0,0,0,0,0,0,0,0,0,0,0,-0.0016,-0.0016,0,-0.0037,-0.0037,-0.0038,-0.0061,-0.0062,-0.0062,-0.0062,-0.0115,-0.0116,-0.0117,0,0,0,0,0,0,0,0,0,0,0,0,0,-0.0015,-0.0014,-0.0016,-0.0016,-0.0017,-0.0037,-0.0037,-0.0038,-0.0061,-0.0062,-0.0062,-0.0062,-0.0114,-0.0115,-0.0117,0,0,0,0,0,0,0,0,0,0,0,0,0,-0.0023,-0.0014,-0.0016,-0.0031,-0.0033,-0.0037,-0.0037,-0.0038,-0.0061,-0.0062,-0.0062,-0.0063,-0.0114,-0.0115,-0.0117,-0.0115,0,0,-0.0122,-0.0122,0,0,0,0,0,0,0,0,-0.0022,-0.0023,-0.0029,-0.003,-0.0032,-0.0048,-0.0056,-0.0065,-0.0061,-0.005,-0.0062,-0.0063,-0.0095,-0.0098,-0.01,-0.0117,-0.0119,-0.0122,-0.0123,-0.0123,-0.0124,0,0,0,0,0,0,0,-0.0022,-0.0022,-0.0024,-0.0029,-0.0031,-0.0044,-0.0045,-0.0058,-0.0069,-0.0051,-0.0053,-0.0056,-0.0096,-0.0098,-0.0101,-0.012,-0.0122,-0.0123,-0.0124,-0.0125,-0.0147,-0.0147,0,0,0,0,0,0,-0.0018,-0.0021,-0.0023,-0.0025,-0.0029,-0.0043,-0.0045,-0.0042,-0.0068,-0.0073,-0.0055,-0.0057,-0.0095,-0.0099,-0.0103,-0.0105,-0.0123,-0.0125,-0.0126,-0.0147,-0.0147,-0.0147,0,0,0,0,0,0,-0.0018,-0.0018,-0.0022,-0.0024,-0.0026,-0.0042,-0.0039,-0.0042,-0.0046,-0.0071,-0.0076,-0.0057,-0.0096,-0.0101,-0.0111,-0.0108,-0.0125,-0.0127,-0.0148,-0.0147,-0.0147,-0.0108,0,0,0,0,0,0,-0.0018,-0.0018,-0.0019,-0.0024,-0.0026,-0.0021,-0.0038,-0.0042,-0.0047,-0.005,-0.0074,-0.008,-0.0097,-0.0109,-0.0113,-0.011,-0.0128,-0.0148,-0.0147,-0.0147,-0.011,-0.0107,-0.0104,0,0,0,0,0,-0.0018,-0.0011,-0.0018,-0.0019,-0.0025,-0.0021,-0.0022,-0.0036,-0.0047,-0.0043,-0.006,-0.0079,-0.0108,-0.0109,-0.0114,-0.0112,-0.0148,-0.0148,-0.0147,-0.0111,-0.0107,-0.0104,0,0,0,0,0,0,-0.0004,-0.0013,-0.0021,-0.0017,-0.0019,-0.0025,-0.0025,-0.0034,-0.0044,-0.0048,-0.0073,-0.0079,-0.0088,-0.0103,-0.0104,-0.0117,-0.0132,-0.0132,-0.0103,-0.01,-0.0097,-0.008,-0.0129,0,0,0,0,0,-0.0003,-0.0006,-0.001,-0.0007,-0.0006,-0.0016,-0.0018,-0.0024,-0.0032,-0.0037,-0.0055,-0.0073,-0.0088,-0.0096,-0.0111,-0.0115,-0.0129,-0.0117,-0.0114,-0.0111,-0.0101,-0.012,-0.0117,-0.0144,-0.0144,-0.0144,0,0,0.0001,-0.0003,-0.0006,-0.0006,-0.0009,0.0002,-0.0018,-0.0015,-0.0008,-0.0041,-0.0041,-0.0063,-0.0087,-0.0092,-0.0098,-0.0105,-0.0111,-0.011,-0.0108,-0.0099,-0.0119,-0.0116,-0.0114,-0.0144,-0.0144,-0.0144,0,0,0.002,0.0009,0.0018,0.0018,0.0017,0.0013,0.0015,0.0011,0.0006,0.0005,-0.0019,-0.0035,-0.0056,-0.007,-0.008,-0.0068,-0.0095,-0.0077,-0.0047,-0.0065,-0.0063,-0.0061,-0.0075,-0.0075,-0.0074,-0.0074,-0.0074,0,0.0023,0.004,0.0022,0.0036,0.0041,0.0021,0.0041,0.0035,0.0027,0.0029,0.001,-0.0018,-0.0043,-0.0047,-0.0046,-0.006,-0.0074,-0.006,-0.0061,-0.0059,-0.0058,-0.0073,-0.0073,-0.0072,-0.0073,-0.0073,-0.0073,0,0.0059,0.0066,0.0075,0.0083,0.0085,0.0099,0.0091,0.0092,0.0079,0.0072,0.0063,0.0028,0.0014,-0.0002,-0.0021,-0.0024,-0.0038,-0.0056,-0.0069,-0.0053,-0.007,-0.0071,-0.007,-0.007,-0.0071,-0.0071,0,0,0.0082,0.0095,0.0099,0.0114,0.0112,0.0125,0.0132,0.0142,0.0157,0.0128,0.0142,0.0102,0.0079,0.0066,0.0034,0.0016,0.0004,-0.0013,-0.0015,-0.0024,-0.0033,-0.0049,-0.0052,-0.0016,-0.0016,-0.0016,-0.0047,0,0.0117,0.0156,0.0151,0.0187,0.0208,0.0192,0.0207,0.0207,0.0199,0.0205,0.0162,0.0156,0.0106,0.0098,0.0071,0.0027,0.0004,0.0015,-0.0049,-0.0051,-0.0065,-0.0053,-0.0024,-0.005,-0.0049,-0.0049,-0.0049,0,0.0162,0.018,0.0224,0.0248,0.0257,0.0273,0.0298,0.0308,0.0303,0.0295,0.0273,0.0237,0.0205,0.0156,0.0086,0.0096,0.0036,-0.0006,-0.0009,-0.0036,-0.0069,-0.0066,-0.0052,-0.0051,-0.0051,-0.0051,-0.005,0,0.0203,0.0234,0.0272,0.028,0.0302,0.0322,0.0333,0.034,0.0365,0.0352,0.0368,0.031,0.0296,0.0213,0.0117,0.0102,0.0041,0.0007,-0.0065,-0.0067,-0.0059,-0.006,-0.0046,-0.0046,-0.0046,-0.0046,-0.0046,0,0.0249,0.0279,0.0297,0.0321,0.0373,0.0368,0.0424,0.0426,0.0444,0.0492,0.0419,0.0443,0.031,0.0254,0.0149,0.0048,0.0062,-0.0052,-0.0074,-0.0045,-0.0045,-0.0061,-0.0062,-0.0047,-0.0047,-0.0047,-0.0047,0,0.0292,0.0303,0.0349,0.038,0.0398,0.0435,0.0488,0.0529,0.0533,0.0595,0.0593,0.0547,0.0476,0.034,0.0214,0.0105,-0.0002,-0.0047,-0.0003,-0.0019,-0.0107,-0.0106,-0.0128,-0.0129,-0.013,-0.013,-0.0131,0,0.0318,0.0348,0.0397,0.0435,0.0454,0.0508,0.0555,0.0574,0.0628,0.0673,0.0715,0.0656,0.0642,0.0442,0.0236,0.0048,0.0011,-0.006,-0.0092,-0.0096,-0.0115,-0.0113,-0.0111,-0.0066,-0.0066,-0.0066,-0.0066,0,0.0368,0.0384,0.0423,0.05,0.0556,0.0623,0.0694,0.075,0.0793,0.0847,0.0913,0.0901,0.0711,0.0522,0.0244,0.0121,-0.0032,-0.0066,-0.0071,-0.0053,-0.0041,-0.0058,-0.0058,-0.0065,-0.0065,-0.0065,-0.0065,-0.0066,0.0407,0.0442,0.0499,0.0574,0.0641,0.0735,0.0804,0.0889,0.0987,0.1071,0.1056,0.1037,0.0813,0.0462,0.0229,-0.0027,-0.0017,-0.0111,-0.0109,-0.0108,-0.0098,-0.0088,-0.012,-0.012,-0.012,-0.0121,-0.0121,0,0.0457,0.05,0.057,0.0661,0.0743,0.077,0.0898,0.0972,0.1101,0.1152,0.1195,0.1,0.0779,0.0511,0.0132,-0.0088,-0.0097,-0.0154,-0.0123,-0.0121,-0.012,-0.011,-0.0135,-0.0136,-0.0137,-0.0138,0,0,0.0488,0.0562,0.0597,0.0735,0.08,0.092,0.0997,0.1106,0.1171,0.1233,0.121,0.1156,0.0845,0.0566,0.0275,0.0056,0.0018,0.0024,0.0063,0.0137,0.014,-0.0062,-0.0041,0,0,0,0,0]}],[{"header":{"parameterUnit":"m.s-1","parameterCategory":2,"la1":30.2991,"la2":30.254,"lo1":-89.0895,"lo2":-89.0444,"dy":0.0017,"dx":0.0017,"nx":28,"ny":28,"refTime":"2024-03-17T03:00:00:Z","depth":"4","parameterNumber":2,"parameterNumberName":"U-component_of_CURRENTS"},"data":[0,0,0,0,0,0,0,0,0,0,0,0,0,0,0,0,0,0,0,0,0,0,0,0,0,0,0,0,0,0,0,0,0,0,0,0,0,0,0,0,0,0,0,0,0,0,0,0,0,0,0,0,0,0,0,0,0,0,0.1377,0.1378,0,0.1473,0.1474,0.1475,0.1531,0.1531,0.1531,0.1532,0.1584,0.1586,0.1587,0,0,0,0,0,0,0,0,0,0,0,0,0,0.1278,0.1279,0.1377,0.1378,0.138,0.1473,0.1474,0.1475,0.1531,0.1531,0.1531,0.1532,0.1584,0.1585,0.1587,0,0,0,0,0,0,0,0,0,0,0,0,0,0.1341,0.1279,0.1377,0.1419,0.1424,0.1473,0.1474,0.1476,0.1531,0.1531,0.1532,0.1532,0.1584,0.1585,0.1587,0.1587,0,0,0.1592,0.1593,0,0,0,0,0,0,0,0,0.1337,0.1344,0.1412,0.1417,0.1422,0.1492,0.1459,0.1511,0.153,0.1489,0.1532,0.1532,0.155,0.1554,0.157,0.159,0.1592,0.1592,0.1593,0.1594,0.1594,0,0,0,0,0,0,0,0.1332,0.134,0.1414,0.1413,0.142,0.1446,0.1455,0.1469,0.1513,0.1492,0.1497,0.151,0.1552,0.1568,0.1572,0.1593,0.1592,0.1593,0.1595,0.1595,0.1691,0.1693,0,0,0,0,0,0,0.1321,0.1336,0.1411,0.1417,0.1381,0.1448,0.1458,0.1468,0.1515,0.1523,0.1509,0.1512,0.1565,0.157,0.1574,0.1645,0.1594,0.1595,0.1596,0.169,0.1692,0.1693,0,0,0,0,0,0,0.1318,0.1327,0.1407,0.138,0.1392,0.1449,0.146,0.1469,0.1522,0.1528,0.1535,0.1556,0.1566,0.1571,0.1616,0.1644,0.1596,0.1598,0.1688,0.169,0.1692,0.1743,0,0,0,0,0,0,0.1315,0.1325,0.1344,0.1379,0.1393,0.146,0.146,0.1471,0.1527,0.1533,0.1569,0.1573,0.1567,0.1614,0.1618,0.1646,0.1599,0.1686,0.1689,0.1692,0.1739,0.1747,0.1753,0,0,0,0,0,0.1311,0.1326,0.1345,0.1355,0.1413,0.1461,0.1472,0.1512,0.1529,0.156,0.1584,0.1574,0.1635,0.1617,0.1621,0.165,0.1684,0.1688,0.1692,0.1736,0.1745,0.1753,0,0,0,0,0,0,0.1293,0.1334,0.1355,0.1383,0.1433,0.1472,0.1506,0.1534,0.158,0.1594,0.1595,0.1601,0.165,0.1646,0.1626,0.1687,0.1658,0.1662,0.169,0.1699,0.1705,0.1709,0.16,0,0,0,0,0,0.1298,0.1325,0.1369,0.14,0.1425,0.1475,0.1506,0.1539,0.1576,0.1599,0.162,0.1642,0.1663,0.1679,0.1696,0.1731,0.1735,0.1753,0.176,0.1765,0.1772,0.1799,0.1809,0.1705,0.1705,0.1705,0,0,0.1304,0.1329,0.1348,0.14,0.1441,0.1483,0.1496,0.1558,0.1594,0.1595,0.1654,0.1672,0.1679,0.1718,0.1739,0.1722,0.1801,0.177,0.1775,0.1779,0.1804,0.1814,0.1823,0.1707,0.1707,0.1706,0,0,0.1322,0.1351,0.1383,0.1424,0.1491,0.1516,0.1542,0.1602,0.1635,0.1691,0.1697,0.1737,0.1771,0.178,0.1786,0.1843,0.1838,0.1853,0.189,0.1916,0.1924,0.1932,0.1964,0.1973,0.1854,0.1854,0.1854,0,0.1334,0.1371,0.1404,0.1445,0.148,0.1533,0.1578,0.1615,0.1684,0.171,0.1718,0.1786,0.1797,0.1834,0.1857,0.1859,0.1876,0.1855,0.1924,0.1932,0.1938,0.1969,0.1979,0.1857,0.1857,0.1856,0.1856,0,0.1368,0.1414,0.1438,0.15,0.154,0.1592,0.164,0.1689,0.1731,0.1765,0.183,0.1849,0.1889,0.1899,0.1898,0.1954,0.1953,0.1931,0.19,0.1952,0.1981,0.1991,0.1861,0.186,0.1859,0.1858,0,0,0.1357,0.1445,0.146,0.1497,0.1576,0.1608,0.1669,0.1731,0.1775,0.1836,0.1886,0.1933,0.1959,0.1969,0.1976,0.2,0.207,0.1995,0.1995,0.2022,0.2144,0.2002,0.1999,0.2063,0.2065,0.2066,0.2149,0,0.1384,0.1457,0.1495,0.1569,0.161,0.1666,0.1711,0.1774,0.1827,0.1886,0.1922,0.1975,0.1979,0.2009,0.2039,0.2066,0.2097,0.2051,0.2094,0.2095,0.1959,0.2005,0.2072,0.2156,0.2158,0.216,0.2161,0,0.1405,0.1448,0.1524,0.1599,0.1623,0.1674,0.1753,0.1804,0.1887,0.1931,0.1995,0.2025,0.2093,0.2074,0.2157,0.2132,0.2151,0.216,0.2163,0.2017,0.1971,0.2091,0.2178,0.2177,0.2176,0.2174,0.2173,0,0.1371,0.1466,0.1523,0.1554,0.1646,0.1693,0.1745,0.1829,0.1873,0.1972,0.202,0.2091,0.2147,0.2179,0.2222,0.2201,0.2295,0.2259,0.2149,0.2141,0.2221,0.2212,0.2308,0.2308,0.2308,0.2307,0.2307,0,0.1367,0.1417,0.152,0.1551,0.1613,0.1686,0.1759,0.1823,0.1913,0.1965,0.2051,0.2096,0.2179,0.2237,0.2251,0.2237,0.2326,0.2165,0.215,0.2242,0.2235,0.2228,0.2218,0.231,0.231,0.2309,0.2309,0,0.1324,0.1399,0.1463,0.1567,0.1604,0.165,0.176,0.1803,0.191,0.1983,0.2019,0.2134,0.2208,0.2268,0.2332,0.2267,0.2265,0.2237,0.2358,0.2347,0.2088,0.208,0.2111,0.2107,0.2103,0.21,0.2098,0,0.1306,0.134,0.1456,0.1495,0.1553,0.1633,0.1681,0.1791,0.1833,0.1983,0.2003,0.2122,0.2182,0.2169,0.224,0.2253,0.2221,0.2206,0.2117,0.2085,0.2068,0.2065,0.2062,0.2092,0.2091,0.209,0.2089,0,0.1258,0.1316,0.1365,0.1444,0.151,0.156,0.1643,0.1655,0.1777,0.1893,0.1933,0.1963,0.2043,0.2081,0.2114,0.2114,0.2201,0.2166,0.2173,0.2089,0.2062,0.2047,0.2049,0.2076,0.2078,0.2079,0.208,0,0.1221,0.1238,0.1314,0.1369,0.1443,0.1462,0.1514,0.1562,0.1612,0.1767,0.1781,0.1908,0.2025,0.2011,0.204,0.2031,0.1986,0.19,0.1919,0.1934,0.1834,0.177,0.1688,0,0,0,0,0,0.1169,0.118,0.123,0.1277,0.1344,0.1386,0.1474,0.1526,0.164,0.1621,0.169,0.1749,0.1786,0.1854,0.1808,0.196,0.1997,0.1896,0.1908,0.2005,0.202,0.1915,0,0,0,0,0,0,0.1136,0.1179,0.1194,0.1187,0.1203,0.1257,0.1306,0.1387,0.1378,0.1506,0.154,0.1639,0.1709,0.18,0.1776,0.1794,0.1762,0.1976,0.1971,0.1996,0.201,0.2022,0.192,0,0,0,0,0]},{"header":{"parameterUnit":"m.s-1","parameterCategory":2,"la1":30.2991,"la2":30.254,"lo1":-89.0895,"lo2":-89.0444,"dy":0.0017,"dx":0.0017,"nx":28,"ny":28,"refTime":"2024-03-17T03:00:00:Z","depth":"4","parameterNumber":3,"parameterNumberName":"V-component_of_CURRENTS"},"data":[0,0,0,0,0,0,0,0,0,0,0,0,0,0,0,0,0,0,0,0,0,0,0,0,0,0,0,0,0,0,0,0,0,0,0,0,0,0,0,0,0,0,0,0,0,0,0,0,0,0,0,0,0,0,0,0,0,0,0.0224,0.0224,0,0.0179,0.0178,0.0178,0.0164,0.0165,0.0165,0.0165,0.0133,0.0132,0.0131,0,0,0,0,0,0,0,0,0,0,0,0,0,0.0247,0.0247,0.0224,0.0224,0.0223,0.0179,0.0178,0.0178,0.0164,0.0165,0.0165,0.0165,0.0133,0.0132,0.013,0,0,0,0,0,0,0,0,0,0,0,0,0,0.0224,0.0247,0.0224,0.0211,0.0209,0.0179,0.0178,0.0177,0.0164,0.0165,0.0165,0.0165,0.0133,0.0132,0.013,0.0115,0,0,0.0125,0.0125,0,0,0,0,0,0,0,0,0.0225,0.0223,0.0213,0.0212,0.021,0.0177,0.0174,0.0157,0.0164,0.0182,0.0165,0.0165,0.0148,0.0145,0.0137,0.0113,0.0112,0.0125,0.0124,0.0124,0.0123,0,0,0,0,0,0,0,0.0227,0.0224,0.0207,0.0213,0.021,0.0189,0.0186,0.0171,0.0164,0.018,0.0179,0.0173,0.0147,0.0138,0.0136,0.0111,0.0125,0.0124,0.0123,0.0122,0.0087,0.0087,0,0,0,0,0,0,0.0234,0.0226,0.0208,0.0205,0.0218,0.0188,0.0186,0.0188,0.0164,0.0161,0.0173,0.0173,0.0141,0.0138,0.0135,0.0133,0.0124,0.0122,0.0121,0.0087,0.0087,0.0087,0,0,0,0,0,0,0.0235,0.0233,0.021,0.0214,0.0209,0.0188,0.019,0.0187,0.0178,0.0159,0.0155,0.0168,0.0141,0.0137,0.0126,0.0131,0.0121,0.012,0.0087,0.0087,0.0087,0.0117,0,0,0,0,0,0,0.0236,0.0234,0.0238,0.0215,0.0209,0.0195,0.019,0.0185,0.0174,0.0173,0.0153,0.0151,0.0141,0.0129,0.0125,0.0128,0.0119,0.0087,0.0087,0.0087,0.0116,0.0118,0.012,0,0,0,0,0,0.0237,0.0243,0.0239,0.0237,0.0217,0.0194,0.019,0.0175,0.0173,0.0169,0.016,0.0151,0.0126,0.0127,0.0123,0.0126,0.0087,0.0087,0.0087,0.0115,0.0118,0.012,0,0,0,0,0,0,0.0253,0.0242,0.0237,0.0239,0.0219,0.0192,0.0187,0.0175,0.0163,0.0165,0.0149,0.0146,0.0139,0.0126,0.0128,0.0115,0.0105,0.0104,0.0129,0.0131,0.0133,0.015,0.0118,0,0,0,0,0,0.026,0.0264,0.0242,0.0242,0.0234,0.021,0.02,0.0189,0.0173,0.0168,0.0155,0.0143,0.0134,0.0128,0.0116,0.0106,0.0092,0.0105,0.0107,0.0109,0.012,0.0104,0.0106,0.0087,0.0087,0.0087,0,0,0.0265,0.0259,0.0261,0.0246,0.0231,0.0223,0.0205,0.019,0.0189,0.0166,0.0163,0.0148,0.0132,0.0126,0.0122,0.0117,0.0104,0.0109,0.0111,0.0121,0.0104,0.0106,0.0108,0.0087,0.0087,0.0087,0,0,0.0273,0.0273,0.0276,0.0263,0.0243,0.0231,0.0227,0.0202,0.0198,0.0187,0.0175,0.0165,0.0145,0.0139,0.0132,0.0136,0.0115,0.0128,0.0152,0.0137,0.0138,0.014,0.0112,0.0111,0.0129,0.0129,0.0129,0,0.028,0.0284,0.0271,0.0267,0.0264,0.0237,0.0237,0.0225,0.0201,0.0204,0.0192,0.0172,0.0154,0.0155,0.0156,0.0141,0.0125,0.0146,0.014,0.0141,0.0142,0.0114,0.0112,0.0131,0.0131,0.013,0.013,0,0.0286,0.029,0.0289,0.0284,0.0278,0.0272,0.0257,0.0253,0.0245,0.0234,0.0231,0.0205,0.0196,0.0184,0.0172,0.0171,0.0153,0.0145,0.0137,0.0146,0.0115,0.0113,0.0133,0.0132,0.0132,0.0132,0,0,0.0303,0.0297,0.0298,0.0305,0.029,0.0288,0.029,0.0289,0.0304,0.0275,0.0288,0.0262,0.0247,0.0239,0.0216,0.0202,0.0184,0.0179,0.0177,0.0157,0.0141,0.0121,0.0116,0.0175,0.0175,0.0175,0.0112,0,0.0313,0.032,0.0315,0.0328,0.0333,0.0323,0.0334,0.0331,0.0327,0.0332,0.0304,0.0304,0.0267,0.0265,0.0243,0.0205,0.0181,0.0201,0.0131,0.0129,0.0115,0.0114,0.0175,0.011,0.011,0.0109,0.0109,0,0.0321,0.033,0.0346,0.0366,0.0369,0.0378,0.0405,0.0409,0.0407,0.0404,0.0392,0.0366,0.0341,0.0309,0.0242,0.0256,0.0202,0.0166,0.0162,0.0136,0.0105,0.0101,0.0105,0.0105,0.0105,0.0106,0.0106,0,0.0345,0.0355,0.0377,0.038,0.0393,0.0413,0.0426,0.0436,0.0457,0.0452,0.0464,0.042,0.0408,0.0338,0.0251,0.0248,0.0175,0.0158,0.0086,0.0083,0.0107,0.0106,0.011,0.011,0.0111,0.0111,0.0111,0,0.0359,0.0378,0.0395,0.0408,0.0452,0.045,0.0499,0.0504,0.0522,0.0554,0.0506,0.0514,0.0417,0.0359,0.027,0.017,0.0183,0.0093,0.007,0.0118,0.012,0.0104,0.0104,0.0108,0.0109,0.0109,0.011,0,0.0374,0.0382,0.0414,0.0445,0.0464,0.0496,0.055,0.0582,0.0592,0.0632,0.0632,0.0588,0.0509,0.0399,0.0286,0.0202,0.0103,0.0062,0.0116,0.0097,0.0014,0.0016,-0.0023,-0.0024,-0.0025,-0.0026,-0.0027,0,0.0379,0.0398,0.0448,0.048,0.0499,0.055,0.059,0.0617,0.0655,0.0678,0.0699,0.0637,0.0589,0.0414,0.029,0.011,0.0082,0.0021,0.0021,0.0021,0.0002,0.0006,0.001,-0.0028,-0.0028,-0.0029,-0.0029,0,0.0396,0.0418,0.0449,0.0514,0.0565,0.0624,0.0683,0.0713,0.0747,0.0758,0.0752,0.0658,0.0568,0.0419,0.0276,0.0148,0.0057,0.001,0.0011,0.001,0.0014,-0.0002,0.0002,-0.0032,-0.0032,-0.0031,-0.0031,0,0.0416,0.0442,0.0489,0.0547,0.0613,0.0677,0.0705,0.0748,0.0782,0.0799,0.0795,0.0692,0.0635,0.0439,0.0311,0.0178,0.014,0.0089,0.0086,0.0088,0.0134,0.0155,0.0137,0,0,0,0,0,0.0431,0.0464,0.0518,0.0583,0.0647,0.0691,0.076,0.0783,0.0816,0.0816,0.0807,0.0719,0.0531,0.0455,0.0319,0.0281,0.011,0.0115,0.0048,-0.0051,-0.0047,-0.0014,0,0,0,0,0,0,0.0442,0.0493,0.0517,0.0602,0.0651,0.073,0.0776,0.0799,0.08,0.0808,0.0713,0.0673,0.0493,0.061,0.0313,0.0274,0.0209,0.0032,0.0029,-0.0053,-0.0049,-0.0046,-0.0011,0,0,0,0,0]}]]